N6987J KAVX-KPSP

Flight info

Callsign N6987J
Flight time 0h 49m
Altitude 11000
Route SXC V21 PDZ V370 GARNE
Aircraft C310/L-VGD/C

Departure

Time 2026-04-24 03:12
Airport Catalina Airport (KAVX)

Arrival

Time 2026-04-24 04:01
Airport Palm Springs International Airport (KPSP)
Time Latitude Longitude Altitude Speed Heading
2026-04-24 02:51 33.40373 -118.41558 1590 ft 0 kts 148°
2026-04-24 03:05 33.40369 -118.41556 1590 ft 1 kts 148°
2026-04-24 03:06 33.40364 -118.41549 1590 ft 0 kts 150°
2026-04-24 03:06 33.40361 -118.41547 1590 ft 7 kts 146°
2026-04-24 03:06 33.40352 -118.41541 1590 ft 0 kts 153°
2026-04-24 03:07 33.40334 -118.41585 1591 ft 8 kts 288°
2026-04-24 03:07 33.40353 -118.41637 1593 ft 7 kts 294°
2026-04-24 03:07 33.40375 -118.41697 1594 ft 9 kts 281°
2026-04-24 03:07 33.40350 -118.41761 1596 ft 8 kts 235°
2026-04-24 03:08 33.40323 -118.41817 1599 ft 12 kts 238°
2026-04-24 03:08 33.40226 -118.41982 1603 ft 0 kts 297°
2026-04-24 03:08 33.40232 -118.41990 1603 ft 0 kts 332°
2026-04-24 03:10 33.40238 -118.41993 1609 ft 5 kts 341°
2026-04-24 03:11 33.40252 -118.41989 1609 ft 7 kts 33°
2026-04-24 03:11 33.40266 -118.41975 1606 ft 0 kts 52°
2026-04-24 03:11 33.40341 -118.41837 1599 ft 37 kts 52°
2026-04-24 03:11 33.40548 -118.41502 1577 ft 68 kts 56°
2026-04-24 03:12 33.40921 -118.40909 1629 ft 100 kts 54°
2026-04-24 03:12 33.41337 -118.40199 1931 ft 107 kts 54°
2026-04-24 03:12 33.41768 -118.39381 2155 ft 122 kts 48°
2026-04-24 03:12 33.42324 -118.38779 2752 ft 98 kts 37°
2026-04-24 03:13 33.42844 -118.38195 3061 ft 100 kts 34°
2026-04-24 03:13 33.43410 -118.37653 3264 ft 118 kts 36°
2026-04-24 03:13 33.44070 -118.37038 3574 ft 123 kts 41°
2026-04-24 03:13 33.44710 -118.36361 3901 ft 126 kts 41°
2026-04-24 03:14 33.45417 -118.35606 4018 ft 145 kts 40°
2026-04-24 03:14 33.46182 -118.34786 4244 ft 151 kts 40°
2026-04-24 03:14 33.46980 -118.33939 4447 ft 156 kts 40°
2026-04-24 03:14 33.47806 -118.33072 4644 ft 159 kts 40°
2026-04-24 03:15 33.48637 -118.32207 4845 ft 157 kts 40°
2026-04-24 03:15 33.49461 -118.31357 5028 ft 155 kts 40°
2026-04-24 03:15 33.50278 -118.30523 5217 ft 154 kts 39°
2026-04-24 03:15 33.51080 -118.29712 5408 ft 152 kts 39°
2026-04-24 03:16 33.51898 -118.28919 5602 ft 150 kts 35°
2026-04-24 03:16 33.52757 -118.28217 5801 ft 148 kts 32°
2026-04-24 03:16 33.53619 -118.27557 5996 ft 146 kts 31°
2026-04-24 03:16 33.54467 -118.26891 6198 ft 145 kts 34°
2026-04-24 03:17 33.55271 -118.26167 6401 ft 145 kts 36°
2026-04-24 03:17 33.56076 -118.25433 6591 ft 146 kts 35°
2026-04-24 03:17 33.56889 -118.24706 6778 ft 146 kts 34°
2026-04-24 03:17 33.57708 -118.23978 6965 ft 147 kts 33°
2026-04-24 03:18 33.58527 -118.23242 7159 ft 147 kts 34°
2026-04-24 03:18 33.59342 -118.22498 7335 ft 148 kts 40°
2026-04-24 03:18 33.59890 -118.21448 7529 ft 150 kts 60°
2026-04-24 03:18 33.60357 -118.20324 7726 ft 151 kts 62°
2026-04-24 03:19 33.60806 -118.19197 7920 ft 149 kts 63°
2026-04-24 03:19 33.61251 -118.18074 8119 ft 149 kts 61°
2026-04-24 03:19 33.61755 -118.16974 8252 ft 152 kts 57°
2026-04-24 03:19 33.62295 -118.15865 8406 ft 155 kts 58°
2026-04-24 03:20 33.62836 -118.14728 8555 ft 158 kts 58°
2026-04-24 03:20 33.63379 -118.13573 8706 ft 160 kts 58°
2026-04-24 03:20 33.63931 -118.12405 8855 ft 161 kts 58°
2026-04-24 03:20 33.64488 -118.11231 9006 ft 163 kts 58°
2026-04-24 03:21 33.65043 -118.10063 9156 ft 163 kts 58°
2026-04-24 03:21 33.65605 -118.08875 9308 ft 164 kts 57°
2026-04-24 03:21 33.66170 -118.07679 9461 ft 165 kts 57°
2026-04-24 03:21 33.66736 -118.06483 9615 ft 165 kts 57°
2026-04-24 03:22 33.67303 -118.05283 9772 ft 165 kts 57°
2026-04-24 03:22 33.67871 -118.04082 9925 ft 165 kts 57°
2026-04-24 03:22 33.68439 -118.02881 10060 ft 165 kts 57°
2026-04-24 03:22 33.69005 -118.01681 10199 ft 164 kts 57°
2026-04-24 03:23 33.69567 -118.00491 10343 ft 164 kts 57°
2026-04-24 03:23 33.70128 -117.99302 10486 ft 164 kts 57°
2026-04-24 03:23 33.70690 -117.98112 10665 ft 164 kts 56°
2026-04-24 03:23 33.71253 -117.96916 10784 ft 165 kts 56°
2026-04-24 03:24 33.71823 -117.95709 10893 ft 167 kts 56°
2026-04-24 03:24 33.72404 -117.94480 10957 ft 172 kts 56°
2026-04-24 03:24 33.73002 -117.93206 10983 ft 178 kts 57°
2026-04-24 03:24 33.73622 -117.91888 10997 ft 184 kts 57°
2026-04-24 03:25 33.74260 -117.90534 11000 ft 188 kts 57°
2026-04-24 03:25 33.74911 -117.89150 11003 ft 192 kts 57°
2026-04-24 03:25 33.75576 -117.87736 11003 ft 195 kts 57°
2026-04-24 03:25 33.76248 -117.86307 11002 ft 198 kts 57°
2026-04-24 03:26 33.76928 -117.84860 11000 ft 200 kts 57°
2026-04-24 03:26 33.77612 -117.83401 11001 ft 201 kts 57°
2026-04-24 03:26 33.78303 -117.81935 11000 ft 202 kts 57°
2026-04-24 03:26 33.78995 -117.80461 11001 ft 202 kts 57°
2026-04-24 03:27 33.79685 -117.78989 11002 ft 203 kts 57°
2026-04-24 03:27 33.80381 -117.77505 11000 ft 203 kts 57°
2026-04-24 03:27 33.81068 -117.76041 10994 ft 204 kts 57°
2026-04-24 03:27 33.81764 -117.74555 10996 ft 204 kts 57°
2026-04-24 03:28 33.82462 -117.73065 10998 ft 205 kts 57°
2026-04-24 03:28 33.83165 -117.71565 10993 ft 205 kts 57°
2026-04-24 03:28 33.83865 -117.70070 10992 ft 205 kts 58°
2026-04-24 03:28 33.84565 -117.68572 11002 ft 206 kts 57°
2026-04-24 03:29 33.85268 -117.67070 11000 ft 206 kts 58°
2026-04-24 03:29 33.85973 -117.65563 10996 ft 207 kts 58°
2026-04-24 03:29 33.86677 -117.64055 10988 ft 206 kts 57°
2026-04-24 03:29 33.87378 -117.62553 10995 ft 206 kts 58°
2026-04-24 03:30 33.88078 -117.61055 10995 ft 205 kts 58°
2026-04-24 03:30 33.88777 -117.59557 10995 ft 205 kts 58°
2026-04-24 03:30 33.89475 -117.58061 10998 ft 205 kts 57°
2026-04-24 03:30 33.90172 -117.56567 10994 ft 205 kts 58°
2026-04-24 03:31 33.90920 -117.55113 10997 ft 204 kts 52°
2026-04-24 03:31 33.91475 -117.53541 10997 ft 207 kts 75°
2026-04-24 03:31 33.91695 -117.51826 10989 ft 208 kts 83°
2026-04-24 03:31 33.91737 -117.50087 10980 ft 208 kts 93°
2026-04-24 03:32 33.91678 -117.48937 10983 ft 208 kts 94°
2026-04-24 03:32 33.91578 -117.46615 10986 ft 208 kts 92°
2026-04-24 03:32 33.91512 -117.44879 10988 ft 208 kts 93°
2026-04-24 03:32 33.91442 -117.43138 10987 ft 208 kts 93°
2026-04-24 03:33 33.91394 -117.41987 10987 ft 208 kts 93°
2026-04-24 03:33 33.91301 -117.39658 10988 ft 208 kts 92°
2026-04-24 03:33 33.91254 -117.38506 10987 ft 209 kts 93°
2026-04-24 03:33 33.91183 -117.36758 10989 ft 209 kts 93°
2026-04-24 03:34 33.91111 -117.35010 10978 ft 209 kts 93°
2026-04-24 03:34 33.91016 -117.32688 10977 ft 209 kts 93°
2026-04-24 03:34 33.90967 -117.31507 10977 ft 209 kts 93°
2026-04-24 03:34 33.90896 -117.29767 11035 ft 205 kts 93°
2026-04-24 03:35 33.90826 -117.28084 11155 ft 199 kts 93°
2026-04-24 03:35 33.90758 -117.26442 11273 ft 194 kts 93°
2026-04-24 03:35 33.90692 -117.24838 11398 ft 190 kts 92°
2026-04-24 03:35 33.90623 -117.23262 11518 ft 187 kts 92°
2026-04-24 03:36 33.90561 -117.21730 11643 ft 184 kts 92°
2026-04-24 03:36 33.90497 -117.20198 11767 ft 182 kts 92°
2026-04-24 03:36 33.90432 -117.18681 11889 ft 180 kts 92°
2026-04-24 03:36 33.90368 -117.17182 12028 ft 179 kts 92°
2026-04-24 03:37 33.90306 -117.15687 12153 ft 178 kts 93°
2026-04-24 03:37 33.90242 -117.14203 12282 ft 178 kts 92°
2026-04-24 03:37 33.90177 -117.12713 12419 ft 178 kts 92°
2026-04-24 03:37 33.90115 -117.11229 12538 ft 177 kts 92°
2026-04-24 03:38 33.90051 -117.09752 12657 ft 176 kts 92°
2026-04-24 03:38 33.89988 -117.08279 12783 ft 175 kts 92°
2026-04-24 03:38 33.89924 -117.06813 12888 ft 176 kts 92°
2026-04-24 03:38 33.89861 -117.05336 12973 ft 179 kts 93°
2026-04-24 03:39 33.89795 -117.03812 12999 ft 185 kts 93°
2026-04-24 03:39 33.89726 -117.02241 13005 ft 191 kts 92°
2026-04-24 03:39 33.89657 -117.00625 13008 ft 195 kts 93°
2026-04-24 03:39 33.89583 -116.98973 13008 ft 199 kts 93°
2026-04-24 03:40 33.89510 -116.97300 13005 ft 202 kts 93°
2026-04-24 03:40 33.89436 -116.95608 13004 ft 203 kts 93°
2026-04-24 03:40 33.89359 -116.93905 13004 ft 205 kts 93°
2026-04-24 03:40 33.89283 -116.92188 13003 ft 206 kts 92°
2026-04-24 03:41 33.89208 -116.90487 13002 ft 207 kts 93°
2026-04-24 03:41 33.89131 -116.88756 13001 ft 208 kts 93°
2026-04-24 03:41 33.89054 -116.87013 12997 ft 209 kts 93°
2026-04-24 03:41 33.88976 -116.85264 12989 ft 209 kts 94°
2026-04-24 03:42 33.88895 -116.83514 12990 ft 209 kts 93°
2026-04-24 03:42 33.88816 -116.81765 12987 ft 209 kts 92°
2026-04-24 03:42 33.88740 -116.80019 12987 ft 209 kts 93°
2026-04-24 03:42 33.88659 -116.78266 12968 ft 210 kts 93°
2026-04-24 03:43 33.88583 -116.76509 12942 ft 209 kts 93°
2026-04-24 03:43 33.88495 -116.74766 12945 ft 208 kts 93°
2026-04-24 03:43 33.88416 -116.73030 12966 ft 208 kts 92°
2026-04-24 03:43 33.88341 -116.71285 12964 ft 209 kts 92°
2026-04-24 03:44 33.88248 -116.69537 12957 ft 209 kts 98°
2026-04-24 03:44 33.87736 -116.67939 12944 ft 203 kts 122°
2026-04-24 03:44 33.86998 -116.66494 12964 ft 203 kts 127°
2026-04-24 03:44 33.86208 -116.65073 12965 ft 205 kts 128°
2026-04-24 03:45 33.85402 -116.63656 12948 ft 205 kts 129°
2026-04-24 03:45 33.84595 -116.62247 12929 ft 203 kts 129°
2026-04-24 03:45 33.83804 -116.60865 12880 ft 198 kts 129°
2026-04-24 03:45 33.83027 -116.59510 12908 ft 196 kts 129°
2026-04-24 03:46 33.82273 -116.58169 12897 ft 194 kts 130°
2026-04-24 03:46 33.81536 -116.56825 12908 ft 191 kts 130°
2026-04-24 03:46 33.80821 -116.55494 12923 ft 188 kts 129°
2026-04-24 03:46 33.80090 -116.54176 12957 ft 190 kts 129°
2026-04-24 03:47 33.79344 -116.52848 12963 ft 193 kts 129°
2026-04-24 03:47 33.78583 -116.51501 12959 ft 194 kts 129°
2026-04-24 03:47 33.77841 -116.50178 12947 ft 188 kts 129°
2026-04-24 03:47 33.77129 -116.48888 12937 ft 182 kts 129°
2026-04-24 03:48 33.76445 -116.47632 12937 ft 177 kts 132°
2026-04-24 03:48 33.75684 -116.46476 12851 ft 178 kts 137°
2026-04-24 03:48 33.74893 -116.45376 12902 ft 170 kts 139°
2026-04-24 03:48 33.74106 -116.44302 12800 ft 175 kts 139°
2026-04-24 03:49 33.73268 -116.43190 12666 ft 183 kts 139°
2026-04-24 03:49 33.72390 -116.42049 12508 ft 188 kts 139°
2026-04-24 03:49 33.71484 -116.40884 12373 ft 192 kts 139°
2026-04-24 03:49 33.70569 -116.39714 12200 ft 193 kts 139°
2026-04-24 03:50 33.69644 -116.38541 12029 ft 192 kts 139°
2026-04-24 03:50 33.68737 -116.37389 11831 ft 194 kts 139°
2026-04-24 03:50 33.67787 -116.36198 11564 ft 200 kts 139°
2026-04-24 03:50 33.66807 -116.34991 11300 ft 204 kts 139°
2026-04-24 03:51 33.65799 -116.33768 11036 ft 207 kts 139°
2026-04-24 03:51 33.64781 -116.32536 10750 ft 209 kts 139°
2026-04-24 03:51 33.63806 -116.31238 10474 ft 212 kts 123°
2026-04-24 03:51 33.63453 -116.29531 10207 ft 214 kts 86°
2026-04-24 03:52 33.63955 -116.27891 9946 ft 210 kts 49°
2026-04-24 03:52 33.65119 -116.26936 9677 ft 201 kts 12°
2026-04-24 03:52 33.66458 -116.27022 9398 ft 192 kts 334°
2026-04-24 03:52 33.67584 -116.27840 9121 ft 189 kts 318°
2026-04-24 03:53 33.68556 -116.28895 8843 ft 187 kts 314°
2026-04-24 03:53 33.69474 -116.29995 8562 ft 186 kts 312°
2026-04-24 03:53 33.70371 -116.31110 8295 ft 186 kts 312°
2026-04-24 03:53 33.71285 -116.32205 8016 ft 187 kts 322°
2026-04-24 03:54 33.72535 -116.32608 7740 ft 192 kts
2026-04-24 03:54 33.73799 -116.32129 7477 ft 194 kts 15°
2026-04-24 03:54 33.75091 -116.31676 7215 ft 193 kts 12°
2026-04-24 03:54 33.76391 -116.31840 6944 ft 191 kts 333°
2026-04-24 03:55 33.77294 -116.32963 6685 ft 190 kts 293°
2026-04-24 03:55 33.77382 -116.34517 6428 ft 191 kts 253°
2026-04-24 03:55 33.76618 -116.35785 6160 ft 191 kts 214°
2026-04-24 03:55 33.75358 -116.36251 5886 ft 192 kts 187°
2026-04-24 03:56 33.74114 -116.36775 5609 ft 193 kts 218°
2026-04-24 03:56 33.73413 -116.38108 5338 ft 192 kts 258°
2026-04-24 03:56 33.73574 -116.39668 5074 ft 192 kts 297°
2026-04-24 03:56 33.74472 -116.40831 4814 ft 191 kts 321°
2026-04-24 03:57 33.75539 -116.41784 4540 ft 191 kts 324°
2026-04-24 03:57 33.76642 -116.42684 4262 ft 191 kts 325°
2026-04-24 03:57 33.77464 -116.43895 3866 ft 195 kts 289°
2026-04-24 03:57 33.77514 -116.45509 3590 ft 192 kts 263°
2026-04-24 03:58 33.76896 -116.46813 3373 ft 192 kts 208°
2026-04-24 03:58 33.75609 -116.46745 3384 ft 180 kts 150°
2026-04-24 03:58 33.74942 -116.45535 3061 ft 188 kts 94°
2026-04-24 03:58 33.75385 -116.44081 2520 ft 189 kts 41°
2026-04-24 03:59 33.76564 -116.43694 1938 ft 188 kts 343°
2026-04-24 03:59 33.77435 -116.44703 1744 ft 174 kts 289°
2026-04-24 03:59 33.77746 -116.46055 1544 ft 156 kts 291°
2026-04-24 03:59 33.78455 -116.46912 1213 ft 144 kts 330°
2026-04-24 04:00 33.79215 -116.47411 1112 ft 109 kts 326°
2026-04-24 04:00 33.79798 -116.47915 841 ft 99 kts 319°
2026-04-24 04:00 33.80291 -116.48411 818 ft 87 kts 316°
2026-04-24 04:00 33.80795 -116.48856 687 ft 90 kts 321°
2026-04-24 04:01 33.81302 -116.49290 601 ft 91 kts 326°
2026-04-24 04:01 33.81805 -116.49729 508 ft 86 kts 321°
2026-04-24 04:01 33.82266 -116.50140 421 ft 75 kts 319°
2026-04-24 04:01 33.82593 -116.50438 428 ft 45 kts 321°
2026-04-24 04:02 33.82794 -116.50607 438 ft 26 kts 323°
2026-04-24 04:02 33.82912 -116.50700 442 ft 15 kts 334°
2026-04-24 04:02 33.82994 -116.50721 446 ft 11 kts
2026-04-24 04:02 33.83040 -116.50719 446 ft 3 kts 346°
2026-04-24 04:03 33.83041 -116.50719 446 ft 0 kts 346°
2026-04-24 04:03 33.83093 -116.50718 440 ft 15 kts 22°
2026-04-24 04:04 33.83172 -116.50606 439 ft 8 kts 45°
2026-04-24 04:04 33.83173 -116.50605 440 ft 0 kts 49°
2026-04-24 04:05 33.83186 -116.50586 435 ft 7 kts 44°
2026-04-24 04:06 33.83190 -116.50581 436 ft 0 kts 51°
2026-04-24 04:06 33.83202 -116.50560 436 ft 16 kts 54°
2026-04-24 04:06 33.83216 -116.50538 437 ft 0 kts 53°